map of AQA home
Great Circle Mapper logo
AQA - Airport
Location
City:  Araraquara, São Paulo, Brazil
Name:Bartolomeu de Gusmão State Airport
Old (Alt.):Araraquara Airport
ICAO / IATA:SBAQ / AQA

Details
Type:Airport (Aerodrome, Airfield)
Latitude:21°48'43"S (-21.811999)
Longitude:48°07'59"W (-48.133027)
Datum:WGS 1984
Elevation:2334 ft (711 m)
Variation:20.6°W (WMM2010 magnetic declination)
Runways:1
Longest:5905 × 98 ft (1800 × 30 m), paved

Time
Time Zone:UTC-3 (DST-2)
Local Time:

Weather
METAR:SBAQ 252200Z 21003KT 9999 SCT030 BKN080 25/22 Q1012 RETS

Related Locations
Nearby:
Farthest:MMD: 12150 mi / 19553 km
Minami Daito Jima, Okinawa, JP

Find:

   beyond  
but within

Other Information
Maps:
NOTAMs:
Links:
Sources:

  
flag of Brazil
flag of São Paulo
  

Sectional Chart

Flight Planning
at skyvector.com

Satellite Image

Google Maps Satellite View

 

Copyright © 2004-2014 Karl L. Swartz. All rights reserved.
The Great Circle Mapper name and logo are trademarks of the Great Circle Mapper.
All other trademarks mentioned herein belong to their respective owners.
Please see credits for attibutions and further copyright information.

  Follow gcmap on Facebook Follow gcmap on Twitter

hCard Microformat

Geo Microformat